Location: Forestville
(38.4740°N, 122.8890°W)
Time: 09:44:57
(UTC-08:00)

Amateur Radio Satellites - All Passes

Search period start: 21 November 2014 09:14
Search period end: 22 November 2014 09:14
Location: Forestville, 38.4740°N, 122.8890°W

Satellite Date Start Highest point End Downlink Frequencies (MHz)
Time Altitude Azimuth
FUNcube-1 21 Nov 09:23:09 09:25:10 13° 92° (E) 09:27:11 145.935
CUTE 1.7 & AOD 2 21 Nov 09:23:24 09:27:40 74° 284° (WNW) 09:31:57 437.475
CUBEBUG 2 21 Nov 09:23:45 09:26:46 19° 94° (E) 09:29:48 437.445
DELFI C3 21 Nov 09:27:13 09:30:54 30° 97° (E) 09:34:33 145.870
UKube-1 21 Nov 09:27:25 09:31:18 32° 98° (E) 09:35:10 .
POPSAT HIP 1 21 Nov 09:29:58 09:33:19 23° 68° (ENE) 09:36:40 437.405
UWE-3 21 Nov 09:34:51 09:38:07 22° 95° (E) 09:41:26 435.000/436.395/437.385
DOVE 4 21 Nov 09:36:04 09:40:13 73° 101° (ESE) 09:44:25 437.250
TIGRISAT 21 Nov 09:40:16 09:44:18 41° 72° (ENE) 09:48:18 435.000
Oscar 11 21 Nov 09:42:28 09:46:45 56° 100° (E) 09:51:01 145.826/435.025
BUGSAT 1 21 Nov 09:43:55 09:47:31 27° 70° (ENE) 09:51:07 437.445
UNISAT 6 21 Nov 09:50:44 09:54:56 56° 74° (ENE) 09:59:08 437.425
GOMX 1 21 Nov 09:54:10 09:58:11 49° 286° (WNW) 10:02:12 467.674
GONETS M04 21 Nov 09:55:52 10:04:08 44° 285° (WNW) 10:12:30
BRITE-PL 21 Nov 09:56:28 10:00:13 33° 289° (WNW) 10:03:55 437.365/2234.400
DX 1 21 Nov 09:57:21 10:01:43 74° 102° (ESE) 10:06:02 434.975-435.025
POLYITAN 1 21 Nov 09:59:20 10:03:28 49° 73° (ENE) 10:07:35 437.675
QB50P2 21 Nov 10:03:28 10:07:39 55° 74° (ENE) 10:11:50 145.880/145.840
SEEDS 21 Nov 10:03:38 10:07:21 30° 289° (WNW) 10:11:03 437.485
VELOX 1 21 Nov 10:04:31 10:08:12 25° 96° (E) 10:11:51 145.980
DUCHIFAT 1 21 Nov 10:12:54 10:17:09 70° 75° (ENE) 10:21:24 145.980
ANTELSAT 21 Nov 10:18:46 10:23:03 68° 259° (WSW) 10:27:19 437.575/2403.000
ZACube-1 21 Nov 10:21:02 10:25:13 65° 101° (E) 10:29:27 437.345
CANX-2 21 Nov 10:25:23 10:27:47 15° 294° (WNW) 10:30:11 2200.000
AISAT 21 Nov 10:27:00 10:31:17 47° 100° (E) 10:35:32 437.250
HO-68 21 Nov 10:31:02 10:37:15 33° 297° (WNW) 10:43:27 435.675
NANOSAT C BR1 21 Nov 10:31:26 10:35:42 70° 259° (WSW) 10:39:58 145.865
AAUSAT CUBESAT 2 21 Nov 10:31:37 10:34:41 20° 292° (WNW) 10:37:45 437.432
QB50P1 21 Nov 10:40:42 10:44:53 54° 260° (W) 10:49:05 145.935-145.965
HUMSAT D 21 Nov 10:43:27 10:47:36 71° 102° (ESE) 10:51:46 437.325/437.525
COMPASS 1 21 Nov 10:44:07 10:46:11 13° 295° (WNW) 10:48:15 437.405
CINEMA 3 21 Nov 10:51:14 10:54:41 26° 290° (WNW) 10:58:11 145.822/145.860
FUNcube-1 21 Nov 10:57:44 11:01:45 46° 286° (WNW) 11:05:49 145.935
CUBEBUG 1 21 Nov 10:59:39 11:03:42 36° 98° (E) 11:07:43 437.445
CUBEBUG 2 21 Nov 10:59:47 11:03:31 32° 289° (WNW) 11:07:19 437.445
DELFI C3 21 Nov 11:02:59 11:06:00 20° 292° (WNW) 11:09:01 145.870
UKube-1 21 Nov 11:04:00 11:07:16 21° 293° (WNW) 11:10:31 .
POPSAT HIP 1 21 Nov 11:05:23 11:09:05 28° 263° (W) 11:12:47 437.405
50 SAT 21 Nov 11:06:53 11:10:55 71° 284° (WNW) 11:14:58 437.505
UWE-3 21 Nov 11:11:04 11:14:39 28° 289° (WNW) 11:18:17 435.000/436.395/437.385
TISAT 1 21 Nov 11:16:39 11:18:40 13° 92° (E) 11:20:40 437.305
TIGRISAT 21 Nov 11:18:46 11:21:14 15° 267° (W) 11:23:42 435.000
BUGSAT 1 21 Nov 11:19:31 11:22:57 24° 264° (W) 11:26:25 437.445
ESTCUBE 1 21 Nov 11:20:25 11:24:58 68° 101° (ESE) 11:29:28 437.505/2401.250
Oscar 11 21 Nov 11:20:31 11:22:26 13° 296° (WNW) 11:24:21 145.826/435.025
SHINDAISAT 21 Nov 11:25:26 11:27:21 53° 302° (WNW) 11:29:17 437.305
UNISAT 6 21 Nov 11:30:54 11:32:04 11° 269° (W) 11:33:14 437.425
POLYITAN 1 21 Nov 11:37:45 11:39:41 13° 268° (W) 11:41:36 437.675
VELOX 1 21 Nov 11:41:01 11:44:43 27° 291° (WNW) 11:48:24 145.980
QB50P2 21 Nov 11:42:31 11:43:53 11° 269° (W) 11:45:16 145.880/145.840
ZACube-1 21 Nov 12:00:24 12:01:04 10° 296° (WNW) 12:01:43 437.345
AISAT 21 Nov 12:04:56 12:07:31 16° 295° (WNW) 12:10:07 437.250
YUBILEINY 21 Nov 12:23:54 12:28:24 15° 61° (ENE) 12:32:52 435.215
Oscar 19 21 Nov 12:33:54 12:38:51 52° 72° (ENE) 12:43:48 437.125/150
SO-50 21 Nov 12:34:41 12:37:56 18° 44° (NE) 12:41:12 436.795
CUBEBUG 1 21 Nov 12:36:46 12:39:48 19° 294° (WNW) 12:42:49 437.445
SPROUT 21 Nov 12:44:22 12:48:37 64° 285° (WNW) 12:52:50 437.525
TISAT 1 21 Nov 12:50:42 12:54:45 46° 287° (WNW) 12:58:45 437.305
ITUPSAT 1 21 Nov 12:52:47 12:56:36 23° 95° (E) 13:00:23 437.325
ESTCUBE 1 21 Nov 12:59:38 13:01:14 12° 297° (WNW) 13:02:50 437.505/2401.250
SWISSCUBE 21 Nov 13:05:21 13:09:44 34° 98° (E) 13:14:04 437.505
CUSAT 1 21 Nov 13:07:18 13:09:55 25° 96° (E) 13:12:14 437.405
DANDE 21 Nov 13:10:49 13:13:29 23° 97° (E) 13:15:48 436.750
ITAMSAT 1 21 Nov 13:15:30 13:20:33 51° 72° (ENE) 13:25:36 435.822/435.867
Gurwin Techsat 1B 21 Nov 13:18:38 13:23:14 31° 68° (ENE) 13:27:50 435.225
AUBIESAT-1 21 Nov 13:18:47 13:23:40 62° 105° (ESE) 13:28:28 437.475
M-CUBED/EXP-1 PRIME 21 Nov 13:20:20 13:25:16 71° 106° (ESE) 13:30:09 437.505
BEESAT 21 Nov 13:37:16 13:42:04 70° 102° (ESE) 13:46:50 436.000
AO-7 21 Nov 13:39:32 13:44:45 19° 52° (NE) 13:49:57 29.400- 29.500
KKS-1 21 Nov 13:49:35 13:52:38 18° 94° (E) 13:55:39 437.445
HORYU 2 21 Nov 14:00:16 14:04:09 31° 70° (ENE) 14:08:03 437.375
SO-50 21 Nov 14:14:06 14:18:57 68° 242° (WSW) 14:23:49 436.795
Oscar 19 21 Nov 14:15:15 14:18:28 17° 268° (W) 14:21:42 437.125/150
YUBILEINY 21 Nov 14:17:56 14:26:42 80° 82° (E) 14:35:22 435.215
ITUPSAT 1 21 Nov 14:30:11 14:34:31 34° 290° (WNW) 14:38:50 437.325
SWISSCUBE 21 Nov 14:43:36 14:47:23 24° 293° (WNW) 14:51:09 437.505
JAS-2 21 Nov 14:44:52 14:48:14 14° 53° (NE) 14:51:38 435.910
STARS 21 Nov 14:54:54 14:59:17 66° 102° (ESE) 15:03:38 437.465
AUBIESAT-1 21 Nov 14:55:08 14:58:07 16° 301° (WNW) 15:01:06 437.475
ITAMSAT 1 21 Nov 14:56:50 15:00:18 18° 267° (W) 15:03:47 435.822/435.867
M-CUBED/EXP-1 PRIME 21 Nov 14:57:03 14:59:43 15° 302° (WNW) 15:02:23 437.505
Gurwin Techsat 1B 21 Nov 14:58:27 15:03:06 31° 264° (W) 15:07:48 435.225
BEESAT 21 Nov 15:17:19 15:19:18 13° 298° (WNW) 15:21:17 436.000
PHONESAT 2.4 21 Nov 15:19:06 15:20:13 11° 142° (SE) 15:21:21 2401.200-2431.200
KKS-1 21 Nov 15:25:18 15:29:23 37° 289° (WNW) 15:33:28 437.445
AO-7 21 Nov 15:28:02 15:36:19 84° 71° (ENE) 15:44:40 29.400- 29.500
HORYU 2 21 Nov 15:37:25 15:40:50 22° 265° (W) 15:44:17 437.375
O/OREOS (USA 219) 21 Nov 15:46:14 15:49:11 17° 57° (ENE) 15:52:08 437.305
MaSat-1 21 Nov 15:48:04 15:51:03 36° 111° (ESE) 15:53:47 437.345
VERMONT LUNAR 21 Nov 15:48:10 15:51:11 25° 149° (SSE) 15:54:12 437.305
MOZHAYETS 4 21 Nov 15:56:38 15:57:59 11° 90° (E) 15:59:21
RS-15 21 Nov 16:08:26 16:18:45 49° 110° (ESE) 16:28:58 29.354- 29.394
YUBILEINY 21 Nov 16:16:47 16:22:22 19° 281° (W) 16:27:58 435.215
JAS-2 21 Nov 16:24:24 16:31:43 67° 72° (ENE) 16:39:30 435.910
STARS 21 Nov 16:33:53 16:35:11 11° 297° (WNW) 16:36:30 437.465
PHONESAT 2.4 21 Nov 16:54:53 16:58:29 49° 156° (SSE) 17:02:06 2401.200-2431.200
Cubesat XI-IV 21 Nov 16:56:05 17:00:49 33° 68° (ENE) 17:05:33 437.490
PRISM 21 Nov 17:18:05 17:20:29 15° 93° (E) 17:22:53 437.425
O/OREOS (USA 219) 21 Nov 17:24:33 17:28:48 44° 254° (WSW) 17:33:03 437.305
AO-7 21 Nov 17:24:40 17:29:57 18° 268° (W) 17:35:17 29.400- 29.500
VERMONT LUNAR 21 Nov 17:25:48 17:29:26 89° 153° (SSE) 17:33:05 437.305
MOZHAYETS 4 21 Nov 17:31:00 17:35:38 66° 285° (WNW) 17:40:14
CUTE-I 21 Nov 17:38:08 17:43:30 79° 75° (ENE) 17:48:53 437.470
JAS-2 21 Nov 18:11:29 18:17:14 24° 270° (W) 18:23:18 435.910
GONETS M04 21 Nov 18:12:41 18:18:00 17° 63° (ENE) 18:23:16
RS-15 21 Nov 18:20:35 18:31:02 48° 312° (NW) 18:41:35 29.354- 29.394
PHONESAT 2.4 21 Nov 18:33:34 18:37:17 67° 353° (N) 18:40:59 2401.200-2431.200
Cubesat XI-IV 21 Nov 18:36:11 18:40:51 30° 264° (W) 18:45:32 437.490
PRISM 21 Nov 18:52:13 18:56:14 42° 288° (WNW) 19:00:13 437.425
CUBESAT XI-V 21 Nov 18:58:33 19:03:15 74° 102° (ESE) 19:07:53 437.345
VERMONT LUNAR 21 Nov 19:04:29 19:08:05 60° 2° (N) 19:11:42 437.305
HO-68 21 Nov 19:10:29 19:16:32 31° 62° (ENE) 19:22:36 435.675
STRAND 1 21 Nov 19:11:32 19:16:41 89° 105° (ESE) 19:21:46 437.568
SEEDS 21 Nov 19:20:56 19:22:55 13° 65° (ENE) 19:24:55 437.485
CUTE-I 21 Nov 19:22:22 19:24:07 12° 270° (W) 19:25:53 437.470
GOMX 1 21 Nov 19:25:00 19:27:35 15° 66° (ENE) 19:30:06 467.674
BRITE-PL 21 Nov 19:27:50 19:31:47 23° 69° (ENE) 19:35:31 437.365/2234.400
AIST 1 21 Nov 19:35:10 19:38:50 27° 89° (E) 19:42:32
CANX-2 21 Nov 19:40:23 19:43:58 28° 70° (ENE) 19:47:33 2200.000
AAUSAT CUBESAT 2 21 Nov 19:46:24 19:49:21 19° 68° (ENE) 19:52:18 437.432
COMPASS 1 21 Nov 19:57:36 20:01:11 29° 70° (ENE) 20:04:47 437.405
PCSat 21 Nov 20:03:22 20:08:21 39° 110° (ESE) 20:13:22 145.827
GONETS M04 21 Nov 20:07:15 20:16:09 87° 84° (E) 20:24:57
PHONESAT 2.4 21 Nov 20:12:33 20:16:17 73° 10° (N) 20:19:59 2401.200-2431.200
CUTE 1.7 & AOD 2 21 Nov 20:15:00 20:19:10 64° 75° (ENE) 20:23:21 437.475
CINEMA 3 21 Nov 20:15:21 20:18:38 20° 69° (ENE) 20:21:49 145.822/145.860
DELFI C3 21 Nov 20:15:51 20:18:30 17° 67° (ENE) 20:21:09 145.870
UKube-1 21 Nov 20:21:41 20:25:11 24° 68° (ENE) 20:28:41 .
CUBEBUG 2 21 Nov 20:22:06 20:24:29 15° 66° (ENE) 20:26:50 437.445
UWE-3 21 Nov 20:32:00 20:34:38 16° 67° (ENE) 20:37:15 435.000/436.395/437.385
Oscar 11 21 Nov 20:36:08 20:40:03 36° 72° (ENE) 20:43:59 145.826/435.025
CUBESAT XI-V 21 Nov 20:38:41 20:40:02 11° 298° (WNW) 20:41:22 437.345
RS-15 21 Nov 20:40:03 20:47:07 19° 343° (NNW) 20:54:16 29.354- 29.394
DOVE 4 21 Nov 20:40:10 20:44:55 65° 75° (ENE) 20:49:24 437.250
SHINDAISAT 21 Nov 20:40:38 20:42:15 23° 244° (WSW) 20:43:50 437.305
VERMONT LUNAR 21 Nov 20:43:04 20:46:42 74° 198° (SSW) 20:50:18 437.305
DX 1 21 Nov 20:51:34 20:55:50 53° 73° (ENE) 21:00:07 434.975-435.025
STRAND 1 21 Nov 20:53:50 20:55:04 11° 300° (WNW) 20:56:19 437.568
SEEDS 21 Nov 20:54:16 20:58:19 49° 261° (W) 21:02:24 437.485
HO-68 21 Nov 20:56:58 21:03:54 51° 259° (W) 21:10:52 435.675
GOMX 1 21 Nov 21:00:23 21:05:19 58° 259° (W) 21:09:56 467.674
VELOX 1 21 Nov 21:01:39 21:04:59 21° 67° (ENE) 21:08:19 145.980
BRITE-PL 21 Nov 21:05:10 21:10:05 39° 262° (W) 21:14:40 437.365/2234.400
BEESAT 3 21 Nov 21:09:19 21:13:22 68° 118° (ESE) 21:17:30 437.485
AIST 1 21 Nov 21:12:57 21:16:27 23° 285° (WNW) 21:19:58
ZACube-1 21 Nov 21:16:06 21:20:07 42° 73° (ENE) 21:24:06 437.345
CANX-2 21 Nov 21:16:35 21:19:53 22° 265° (W) 21:23:11 2200.000
BEESAT 2 21 Nov 21:20:49 21:24:55 82° 119° (ESE) 21:29:06 435.950
AAUSAT CUBESAT 2 21 Nov 21:21:05 21:24:48 32° 263° (W) 21:28:33 437.432
AISAT 21 Nov 21:24:01 21:28:08 36° 71° (ENE) 21:32:15 437.250
COMPASS 1 21 Nov 21:33:47 21:36:55 21° 266° (W) 21:40:05 437.405
AIST 2 21 Nov 21:34:28 21:38:34 55° 117° (ESE) 21:42:46 435.215
HUMSAT D 21 Nov 21:34:38 21:38:33 41° 73° (ENE) 21:42:26 437.325/437.525
UNISAT 6 21 Nov 21:45:54 21:48:04 13° 92° (E) 21:50:14 437.425
PCSat 21 Nov 21:47:12 21:51:50 29° 308° (NW) 21:56:31 145.827
DELFI C3 21 Nov 21:49:49 21:53:31 34° 262° (W) 21:57:16 145.870
PHONESAT 2.4 21 Nov 21:51:30 21:55:00 40° 206° (SSW) 21:58:28 2401.200-2431.200
CINEMA 3 21 Nov 21:51:33 21:55:39 33° 262° (W) 21:59:36 145.822/145.860
FUNcube-1 21 Nov 21:52:14 21:56:29 72° 258° (WSW) 22:00:41 145.935
50 SAT 21 Nov 21:54:27 21:58:26 59° 75° (ENE) 22:02:25 437.505
CUBEBUG 1 21 Nov 21:54:56 21:58:40 27° 69° (ENE) 22:02:25 437.445
CUBEBUG 2 21 Nov 21:56:39 22:00:50 45° 261° (W) 22:04:56 437.445
UKube-1 21 Nov 21:57:28 22:01:12 28° 263° (W) 22:04:58 .
DUCHIFAT 1 21 Nov 22:01:50 22:03:40 13° 92° (E) 22:05:29 145.980
GONETS M04 21 Nov 22:06:30 22:11:41 17° 282° (WNW) 22:16:53
UWE-3 21 Nov 22:06:49 22:10:53 40° 261° (W) 22:14:52 435.000/436.395/437.385
ANTELSAT 21 Nov 22:12:43 22:16:29 27° 96° (E) 22:20:18 437.575/2403.000
Oscar 11 21 Nov 22:13:25 22:16:19 18° 267° (W) 22:19:15 145.826/435.025
ESTCUBE 1 21 Nov 22:18:46 22:23:10 52° 73° (ENE) 22:27:36 437.505/2401.250
NANOSAT C BR1 21 Nov 22:19:16 22:22:28 21° 95° (E) 22:25:38 145.865
DOVE 4 21 Nov 22:21:32 22:22:59 11° 268° (W) 22:24:25 437.250
VERMONT LUNAR 21 Nov 22:22:16 22:24:50 18° 213° (SSW) 22:27:24 437.305
QB50P1 21 Nov 22:28:12 22:31:46 26° 96° (E) 22:35:19 145.935-145.965
DX 1 21 Nov 22:30:28 22:32:22 13° 268° (W) 22:34:16 434.975-435.025
VELOX 1 21 Nov 22:37:15 22:41:20 34° 262° (W) 22:45:27 145.980
BEESAT 3 21 Nov 22:49:58 22:52:04 14° 316° (NW) 22:54:10 437.485
POPSAT HIP 1 21 Nov 22:51:57 22:56:03 50° 100° (E) 23:00:08 437.405
ZACube-1 21 Nov 22:54:21 22:56:41 14° 267° (W) 22:59:00 437.345
RS-15 21 Nov 22:58:04 23:05:38 20° 21° (NNE) 23:13:20 29.354- 29.394
AISAT 21 Nov 23:01:39 23:04:51 19° 266° (W) 23:08:04 437.250
BEESAT 2 21 Nov 23:02:14 23:03:47 12° 318° (NW) 23:05:21 435.950
BUGSAT 1 21 Nov 23:02:57 23:07:00 55° 100° (E) 23:10:58 437.445
TIGRISAT 21 Nov 23:09:43 23:14:05 69° 285° (WNW) 23:18:32 435.000
HUMSAT D 21 Nov 23:12:16 23:14:32 14° 267° (W) 23:16:48 437.325/437.525
AIST 2 21 Nov 23:14:50 23:17:33 16° 315° (NW) 23:20:18 435.215
UNISAT 6 21 Nov 23:20:50 23:25:06 51° 286° (WNW) 23:29:27 437.425
POLYITAN 1 21 Nov 23:22:34 23:26:46 68° 285° (WNW) 23:30:57 437.675
QB50P2 21 Nov 23:26:32 23:30:43 61° 285° (WNW) 23:34:52 145.880/145.840
CUBEBUG 1 21 Nov 23:31:17 23:34:58 25° 264° (W) 23:38:41 437.445
DUCHIFAT 1 21 Nov 23:35:44 23:39:48 48° 287° (WNW) 23:43:50 145.980
SPROUT 21 Nov 23:37:00 23:41:20 80° 76° (ENE) 23:45:40 437.525
TISAT 1 21 Nov 23:41:36 23:45:53 76° 258° (WSW) 23:50:11 437.305
ISS 21 Nov 23:45:00 23:46:45 14° 129° (SE) 23:48:30 145.825
CUSAT 1 21 Nov 23:45:08 23:48:52 27° 79° (E) 23:53:35 437.405
ANTELSAT 21 Nov 23:49:34 23:53:11 25° 291° (WNW) 23:56:52 437.575/2403.000
DANDE 21 Nov 23:50:56 23:54:26 25° 79° (E) 23:58:50 436.750
NANOSAT C BR1 21 Nov 23:54:42 23:58:22 29° 290° (WNW) 00:02:01 145.865
ESTCUBE 1 21 Nov 23:58:02 00:00:20 14° 268° (W) 00:02:39 437.505/2401.250
ITUPSAT 1 21 Nov 23:58:37 00:02:25 24° 67° (ENE) 00:06:14 437.325
QB50P1 22 Nov 00:04:11 00:07:33 24° 291° (WNW) 00:10:54 145.935-145.965
AUBIESAT-1 22 Nov 00:07:22 00:11:10 61° 69° (ENE) 00:15:22 437.475
M-CUBED/EXP-1 PRIME 22 Nov 00:09:19 00:13:08 71° 70° (ENE) 00:17:22 437.505
SWISSCUBE 22 Nov 00:10:47 00:15:06 34° 70° (ENE) 00:19:26 437.505
POPSAT HIP 1 22 Nov 00:29:31 00:31:31 13° 295° (WNW) 00:33:31 437.405
BUGSAT 1 22 Nov 00:40:38 00:41:59 11° 296° (WNW) 00:43:20 437.445
BEESAT 22 Nov 00:42:23 00:47:07 68° 74° (ENE) 00:51:54 436.000
KKS-1 22 Nov 00:47:30 00:50:02 15° 65° (ENE) 00:52:33 437.445
Oscar 19 22 Nov 00:47:43 00:51:33 21° 94° (E) 00:55:23 437.125/150
RS-15 22 Nov 01:10:28 01:21:24 54° 50° (NE) 01:32:45 29.354- 29.394
ISS 22 Nov 01:19:50 01:23:03 55° 324° (NW) 01:26:18 145.825
YUBILEINY 22 Nov 01:24:19 01:29:35 18° 78° (ENE) 01:34:50 435.215
CUSAT 1 22 Nov 01:28:10 01:31:55 27° 264° (W) 01:36:38 437.405
MaSat-1 22 Nov 01:28:54 01:31:04 34° 63° (ENE) 01:33:16 437.345
ITAMSAT 1 22 Nov 01:30:46 01:34:34 20° 94° (E) 01:38:20 435.822/435.867
DANDE 22 Nov 01:34:13 01:37:49 27° 264° (W) 01:42:23 436.750
ITUPSAT 1 22 Nov 01:35:45 01:40:06 34° 262° (W) 01:44:30 437.325
Gurwin Techsat 1B 22 Nov 01:37:47 01:40:13 13° 90° (E) 01:42:40 435.225
SWISSCUBE 22 Nov 01:49:12 01:53:00 23° 265° (W) 01:56:49 437.505
STARS 22 Nov 01:50:46 01:55:00 48° 73° (ENE) 01:59:15 437.465
KKS-1 22 Nov 02:21:56 02:26:15 49° 260° (W) 02:30:35 437.445
BEESAT 22 Nov 02:23:54 02:25:24 11° 270° (W) 02:26:56 436.000
JUGNU 22 Nov 02:25:30 02:27:32 12° 176° (S) 02:29:33 437.505
Oscar 19 22 Nov 02:26:11 02:31:02 43° 289° (WNW) 02:35:54 437.125/150
ISS 22 Nov 02:58:42 03:00:18 13° 342° (NNW) 03:01:54 145.825
ITAMSAT 1 22 Nov 03:09:19 03:14:14 44° 289° (WNW) 03:19:06 435.822/435.867
Gurwin Techsat 1B 22 Nov 03:15:22 03:20:40 70° 286° (WNW) 03:25:55 435.225
YUBILEINY 22 Nov 03:16:19 03:25:09 86° 277° (W) 03:34:00 435.215
RS-15 22 Nov 03:23:10 03:33:35 45° 251° (WSW) 03:44:27 29.354- 29.394
HORYU 2 22 Nov 03:29:14 03:33:44 80° 103° (ESE) 03:38:14 437.375
STARS 22 Nov 03:29:27 03:31:44 14° 268° (W) 03:34:02 437.465
AO-7 22 Nov 03:31:57 03:39:07 31° 97° (E) 03:46:14 29.400- 29.500
JUGNU 22 Nov 04:14:02 04:15:39 11° 186° (S) 04:17:16 437.505
SRMSAT 22 Nov 04:15:54 04:18:07 12° 178° (S) 04:20:20 437.500
SO-50 22 Nov 04:27:28 04:31:51 56° 117° (ESE) 04:36:23 436.795
MOZHAYETS 4 22 Nov 04:31:25 04:35:59 83° 257° (WSW) 04:40:37
STRAND 1 22 Nov 04:50:11 04:52:33 13° 61° (ENE) 04:54:54 437.568
PCSat 22 Nov 04:52:50 04:57:18 25° 51° (NE) 05:01:44 145.827
Cubesat XI-IV 22 Nov 05:16:18 05:18:59 14° 91° (E) 05:21:38 437.490
YUBILEINY 22 Nov 05:18:05 05:23:16 17° 297° (WNW) 05:28:29 435.215
JAS-2 22 Nov 05:21:41 05:28:55 67° 101° (E) 05:35:17 435.910
AO-7 22 Nov 05:24:05 05:32:11 57° 294° (WNW) 05:40:16 29.400- 29.500
BEESAT 3 22 Nov 05:31:01 05:34:40 28° 51° (NE) 05:38:16 437.485
PRISM 22 Nov 05:41:21 05:45:31 70° 258° (WSW) 05:49:44 437.425
BEESAT 2 22 Nov 05:42:46 05:46:36 33° 53° (NE) 05:50:24 435.950
O/OREOS (USA 219) 22 Nov 05:56:48 06:00:24 24° 102° (ESE) 06:03:59 437.305
CUTE-I 22 Nov 05:57:13 06:02:03 35° 97° (E) 06:06:52 437.470
AIST 2 22 Nov 05:58:16 06:01:53 25° 50° (NE) 06:05:27 435.215
CUBESAT XI-V 22 Nov 06:00:26 06:05:04 61° 74° (ENE) 06:09:45 437.345
SRMSAT 22 Nov 06:05:43 06:06:23 10° 189° (S) 06:07:03 437.500
SO-50 22 Nov 06:09:36 06:12:46 18° 316° (NW) 06:16:00 436.795
ISS 22 Nov 06:13:39 06:15:57 17° 23° (NNE) 06:18:15 145.825
STRAND 1 22 Nov 06:25:55 06:31:04 75° 257° (WSW) 06:36:14 437.568
PCSat 22 Nov 06:35:44 06:40:54 46° 248° (WSW) 06:46:02 145.827
Cubesat XI-IV 22 Nov 06:54:13 06:59:31 67° 286° (WNW) 07:04:46 437.490
JAS-2 22 Nov 07:07:50 07:13:08 22° 301° (WNW) 07:18:04 435.910
BEESAT 3 22 Nov 07:09:19 07:12:48 26° 248° (WSW) 07:16:15 437.485
GONETS M04 22 Nov 07:13:05 07:18:52 20° 79° (E) 07:24:40
AO-7 22 Nov 07:20:34 07:23:09 12° 314° (NW) 07:25:44 29.400- 29.500
AIST 1 22 Nov 07:20:46 07:25:11 75° 82° (E) 07:29:31
BEESAT 2 22 Nov 07:21:29 07:24:42 22° 249° (WSW) 07:27:53 435.950
O/OREOS (USA 219) 22 Nov 07:35:42 07:39:38 29° 298° (WNW) 07:43:34 437.305
AIST 2 22 Nov 07:36:44 07:40:31 31° 247° (WSW) 07:44:14 435.215
CUTE-I 22 Nov 07:37:31 07:41:58 28° 293° (WNW) 07:46:23 437.470
CUBESAT XI-V 22 Nov 07:40:54 07:42:53 13° 270° (W) 07:44:53 437.345
ISS 22 Nov 07:49:38 07:52:57 77° 220° (SW) 07:56:14 145.825
CUTE 1.7 & AOD 2 22 Nov 08:03:56 08:05:50 13° 91° (E) 08:07:43 437.475
HO-68 22 Nov 08:26:21 08:32:48 35° 97° (E) 08:39:10 435.675
SEEDS 22 Nov 08:40:47 08:44:31 29° 96° (E) 08:48:15 437.485
DOVE 4 22 Nov 08:42:05 08:44:47 17° 94° (E) 08:47:30 437.250
UNISAT 6 22 Nov 08:46:13 08:46:44 10° 63° (ENE) 08:47:16 437.425
CANX-2 22 Nov 09:02:31 09:06:48 69° 101° (E) 09:11:05 2200.000
GOMX 1 22 Nov 09:04:01 09:07:56 40° 99° (E) 09:11:54 467.674
AAUSAT CUBESAT 2 22 Nov 09:05:52 09:09:54 42° 99° (E) 09:13:55 437.432
